Terminal Aerodrome Forecast
Issued by NWS La Crosse, WI

Home | Current Version | Previous Version | Text Only | Print | Product List | Glossary On
Versions: 1 2 3 4 5 6 7 8 9 10 11 12 13 14 15 16 17 18 19 20 21 22 23 24 25 26 27 28 29 30 31 32 33 34 35 36 37 38 39 40 41 42 43 44
000
FTUS43 KARX 231412 AAB
TAFLSE
TAF AMD
KLSE 231412Z 2314/2412 33004KT P6SM SCT005 BKN060
     FM231700 31010KT P6SM SCT045
     FM232000 32011KT P6SM BKN050
     FM240200 34005KT P6SM SCT040=

USA.gov is the U.S. government's official web portal to all federal, state and local government web resources and services.